Zurück zum Katalog

STARLINK-30499

AktivKommunikationVLEO
NORAD 57918·PAYLOAD·🇺🇸 United States

Gestartet Sep 24, 2023 von Cape Canaveral Space Force Station

Loading…

Nächste Überflüge (nächste 24 Stunden)

TLE

AktuellSource: CelesTrak SupGP

Epoche: Sep 14, 2026, 21:10 UTC

1 57918C 23147F   26257.88243056  .00007768  00000+0  28137-3 0  2573
2 57918  43.0020 191.7601 0001185 261.3925 198.3481 15.27572027    12

Verfolge STARLINK-30499 in Echtzeit mit AllMySat

Download on the App Store